| time (UTC) | temp C | wind direction | speed KPH | gust KPH | rain 1hr cm | rain 24hr cm | rain mn cm | humidity % | barometer mb |
| 20260505025052 | 23 | 119 | 4.8 | 19.3 | 0.00 | 0.03 | 0.03 | 100 | 1017.5 |
| 20260505024553 | 23 | 140 | 6.4 | 19.3 | 0.00 | 0.03 | 0.03 | 100 | 1017.7 |
| 20260505024048 | 23 | 123 | 4.8 | 20.9 | 0.00 | 0.03 | 0.03 | 100 | 1017.6 |
| 20260505023550 | 23 | 113 | 6.4 | 17.7 | 0.00 | 0.03 | 0.03 | 100 | 1017.7 |
| 20260505023052 | 23 | 130 | 6.4 | 16.1 | 0.00 | 0.03 | 0.03 | 100 | 1017.8 |
| 20260505022548 | 23 | 117 | 4.8 | 17.7 | 0.00 | 0.03 | 0.03 | 100 | 1017.8 |
| 20260505022051 | 23 | 99 | 6.4 | 24.1 | 0.00 | 0.03 | 0.03 | 100 | 1017.7 |
| 20260505021547 | 23 | 111 | 4.8 | 24.1 | 0.00 | 0.03 | 0.03 | 100 | 1017.6 |
| 20260505021047 | 23 | 123 | 9.7 | 22.5 | 0.00 | 0.03 | 0.03 | 100 | 1017.6 |
| 20260505020547 | 23 | 132 | 9.7 | 19.3 | 0.00 | 0.03 | 0.03 | 100 | 1017.5 |
| 20260505020050 | 23 | 101 | 6.4 | 16.1 | 0.00 | 0.03 | 0.03 | 100 | 1017.5 |
| 20260505015547 | 23 | 109 | 8.0 | 14.5 | 0.00 | 0.03 | 0.03 | 100 | 1017.5 |
| 20260505015046 | 23 | 157 | 8.0 | 14.5 | 0.00 | 0.03 | 0.03 | 100 | 1017.5 |
| 20260505014553 | 23 | 123 | 4.8 | 14.5 | 0.00 | 0.03 | 0.03 | 100 | 1017.5 |
| 20260505014045 | 23 | 132 | 4.8 | 14.5 | 0.00 | 0.03 | 0.03 | 100 | 1017.6 |
| 20260505013545 | 23 | 126 | 4.8 | 14.5 | 0.00 | 0.03 | 0.03 | 100 | 1017.6 |
| 20260505013045 | 23 | 128 | 4.8 | 19.3 | 0.00 | 0.03 | 0.03 | 100 | 1017.7 |
| 20260505012545 | 23 | 134 | 4.8 | 19.3 | 0.00 | 0.03 | 0.03 | 100 | 1017.6 |
| 20260505012045 | 23 | 121 | 4.8 | 19.3 | 0.00 | 0.03 | 0.03 | 100 | 1017.5 |
| 20260505011547 | 23 | 107 | 4.8 | 19.3 | 0.00 | 0.03 | 0.03 | 100 | 1017.5 |
| 20260505011044 | 23 | 107 | 4.8 | 17.7 | 0.00 | 0.03 | 0.03 | 100 | 1017.5 |
| 20260505010544 | 23 | 109 | 4.8 | 17.7 | 0.00 | 0.03 | 0.03 | 100 | 1017.3 |
| 20260505010104 | 23 | 128 | 4.8 | 17.7 | 0.00 | 0.03 | 0.03 | 100 | 1017.1 |
| 20260505005547 | 23 | 130 | 6.4 | 17.7 | 0.00 | 0.03 | 0.03 | 100 | 1017.1 |
| 20260505005045 | 23 | 119 | 6.4 | 17.7 | 0.00 | 0.03 | 0.03 | 100 | 1017.1 |
| 20260505004544 | 23 | 113 | 3.2 | 12.9 | 0.00 | 0.03 | 0.03 | 100 | 1017.1 |
| 20260505004043 | 23 | 117 | 6.4 | 14.5 | 0.00 | 0.03 | 0.03 | 100 | 1017.0 |
| 20260505003543 | 23 | 107 | 4.8 | 16.1 | 0.00 | 0.03 | 0.03 | 100 | 1017.1 |
| 20260505003046 | 23 | 132 | 6.4 | 17.7 | 0.00 | 0.03 | 0.03 | 100 | 1017.0 |
| 20260505002545 | 23 | 106 | 4.8 | 17.7 | 0.00 | 0.03 | 0.03 | 100 | 1017.1 |
| 20260505002042 | 23 | 120 | 3.2 | 14.5 | 0.00 | 0.03 | 0.03 | 100 | 1017.0 |
| 20260505001542 | 23 | 144 | 4.8 | 14.5 | 0.00 | 0.03 | 0.03 | 100 | 1016.9 |
| 20260505001111 | 23 | 96 | 3.2 | 19.3 | 0.00 | 0.03 | 0.03 | 100 | 1016.8 |
| 20260505000541 | 23 | 82 | 6.4 | 14.5 | 0.00 | 0.03 | 0.03 | 100 | 1016.7 |
| 20260505000046 | 23 | 146 | 4.8 | 14.5 | 0.00 | 0.03 | 0.03 | 100 | 1016.6 |
| 20260504235541 | 23 | 92 | 6.4 | 14.5 | 0.00 | 0.03 | 0.03 | 100 | 1016.5 |
| 20260504235043 | 23 | 128 | 4.8 | 17.7 | 0.00 | 0.03 | 0.03 | 100 | 1016.4 |
| 20260504234542 | 23 | 126 | 4.8 | 17.7 | 0.00 | 0.03 | 0.03 | 100 | 1016.4 |
| 20260504234041 | 23 | 134 | 4.8 | 16.1 | 0.00 | 0.03 | 0.03 | 100 | 1016.3 |
| 20260504233541 | 23 | 137 | 4.8 | 16.1 | 0.00 | 0.03 | 0.03 | 100 | 1016.3 |
| 20260504233040 | 23 | 148 | 4.8 | 17.7 | 0.00 | 0.03 | 0.03 | 100 | 1016.3 |
| 20260504232540 | 23 | 168 | 8.0 | 17.7 | 0.00 | 0.03 | 0.03 | 100 | 1016.3 |
| 20260504232039 | 23 | 30 | 4.8 | 12.9 | 0.00 | 0.03 | 0.03 | 100 | 1016.3 |
| 20260504231545 | 23 | 144 | 4.8 | 19.3 | 0.00 | 0.03 | 0.03 | 100 | 1016.4 |
| 20260504231039 | 23 | 109 | 4.8 | 19.3 | 0.00 | 0.03 | 0.03 | 100 | 1016.4 |
| 20260504230542 | 23 | 145 | 6.4 | 20.9 | 0.00 | 0.03 | 0.03 | 100 | 1016.5 |
| 20260504230044 | 23 | 85 | 9.7 | 20.9 | 0.00 | 0.03 | 0.03 | 100 | 1016.6 |
| 20260504225539 | 23 | 143 | 6.4 | 19.3 | 0.00 | 0.03 | 0.03 | 100 | 1016.4 |
| 20260504225038 | 23 | 116 | 6.4 | 16.1 | 0.00 | 0.03 | 0.03 | 100 | 1016.4 |
| 20260504224538 | 23 | 126 | 6.4 | 14.5 | 0.00 | 0.03 | 0.03 | 100 | 1016.3 |
| 20260504224038 | 23 | 136 | 4.8 | 16.1 | 0.00 | 0.03 | 0.03 | 100 | 1016.4 |
| 20260504223544 | 23 | 119 | 4.8 | 20.9 | 0.00 | 0.03 | 0.03 | 100 | 1016.5 |
| 20260504223040 | 23 | 116 | 4.8 | 22.5 | 0.00 | 0.03 | 0.03 | 100 | 1016.5 |
| 20260504222538 | 23 | 103 | 11.3 | 22.5 | 0.00 | 0.03 | 0.03 | 100 | 1016.4 |
| 20260504222037 | 23 | 99 | 4.8 | 17.7 | 0.00 | 0.03 | 0.03 | 100 | 1016.4 |
| 20260504221553 | 23 | 139 | 4.8 | 22.5 | 0.00 | 0.03 | 0.03 | 100 | 1016.5 |
| 20260504221037 | 23 | 108 | 4.8 | 17.7 | 0.00 | 0.03 | 0.03 | 100 | 1016.4 |
| 20260504220537 | 23 | 121 | 4.8 | 22.5 | 0.00 | 0.03 | 0.03 | 100 | 1016.5 |
| 20260504220037 | 23 | 111 | 8.0 | 22.5 | 0.00 | 0.03 | 0.03 | 100 | 1016.5 |
| 20260504215537 | 23 | 120 | 4.8 | 16.1 | 0.00 | 0.03 | 0.03 | 100 | 1016.5 |
| 20260504215036 | 23 | 110 | 4.8 | 17.7 | 0.00 | 0.03 | 0.03 | 100 | 1016.6 |
| 20260504214536 | 24 | 98 | 4.8 | 17.7 | 0.00 | 0.03 | 0.03 | 100 | 1016.5 |
| 20260504214036 | 24 | 115 | 6.4 | 19.3 | 0.00 | 0.03 | 0.03 | 100 | 1016.5 |
| 20260504213536 | 24 | 91 | 6.4 | 19.3 | 0.00 | 0.03 | 0.03 | 100 | 1016.5 |
| 20260504213047 | 24 | 84 | 3.2 | 19.3 | 0.00 | 0.03 | 0.03 | 100 | 1016.6 |
| 20260504212535 | 24 | 103 | 4.8 | 22.5 | 0.00 | 0.03 | 0.03 | 100 | 1016.6 |
| 20260504212038 | 24 | 109 | 6.4 | 22.5 | 0.00 | 0.03 | 0.03 | 100 | 1016.6 |
| 20260504211539 | 24 | 123 | 6.4 | 24.1 | 0.00 | 0.03 | 0.03 | 100 | 1016.6 |
| 20260504211035 | 25 | 128 | 4.8 | 16.1 | 0.00 | 0.03 | 0.03 | 100 | 1016.7 |
| 20260504210537 | 25 | 28 | 8.0 | 20.9 | 0.00 | 0.03 | 0.03 | 100 | 1016.5 |
| 20260504210034 | 24 | 146 | 9.7 | 20.9 | 0.00 | 0.03 | 0.03 | 100 | 1016.8 |
| 20260504205534 | 25 | 106 | 4.8 | 24.1 | 0.00 | 0.03 | 0.03 | 100 | 1016.6 |
| 20260504205035 | 25 | 134 | 8.0 | 24.1 | 0.00 | 0.03 | 0.03 | 100 | 1016.7 |
| 20260504204535 | 24 | 126 | 6.4 | 22.5 | 0.00 | 0.03 | 0.03 | 100 | 1016.6 |
| 20260504204033 | 24 | 28 | 8.0 | 29.0 | 0.00 | 0.03 | 0.03 | 100 | 1016.8 |
| 20260504203533 | 24 | 132 | 8.0 | 29.0 | 0.00 | 0.03 | 0.03 | 100 | 1016.7 |
| 20260504203045 | 25 | 165 | 8.0 | 20.9 | 0.00 | 0.03 | 0.03 | 100 | 1016.8 |
| 20260504202533 | 24 | 101 | 8.0 | 24.1 | 0.00 | 0.03 | 0.03 | 100 | 1016.7 |
| 20260504202033 | 24 | 137 | 11.3 | 24.1 | 0.00 | 0.03 | 0.03 | 100 | 1017.0 |
| 20260504201532 | 25 | 111 | 6.4 | 19.3 | 0.00 | 0.03 | 0.03 | 100 | 1016.9 |
| 20260504201032 | 24 | 121 | 6.4 | 19.3 | 0.00 | 0.03 | 0.03 | 100 | 1016.9 |
| 20260504200532 | 24 | 5 | 6.4 | 17.7 | 0.00 | 0.03 | 0.03 | 100 | 1017.1 |
| 20260504200032 | 24 | 121 | 8.0 | 24.1 | 0.00 | 0.03 | 0.03 | 100 | 1017.2 |
| 20260504195531 | 24 | 72 | 6.4 | 24.1 | 0.00 | 0.03 | 0.03 | 100 | 1017.3 |
| 20260504195031 | 24 | 119 | 8.0 | 24.1 | 0.00 | 0.03 | 0.03 | 100 | 1017.3 |
| 20260504194539 | 25 | 104 | 8.0 | 24.1 | 0.00 | 0.03 | 0.03 | 100 | 1017.3 |
| 20260504194031 | 25 | 142 | 4.8 | 19.3 | 0.00 | 0.03 | 0.03 | 100 | 1017.4 |
| 20260504193533 | 25 | 110 | 4.8 | 17.7 | 0.00 | 0.03 | 0.03 | 100 | 1017.3 |
| 20260504193030 | 25 | 151 | 6.4 | 17.7 | 0.00 | 0.03 | 0.03 | 100 | 1017.4 |
| 20260504192530 | 25 | 87 | 8.0 | 25.7 | 0.00 | 0.03 | 0.03 | 100 | 1017.4 |
| 20260504192032 | 25 | 153 | 9.7 | 25.7 | 0.00 | 0.03 | 0.03 | 100 | 1017.4 |
| 20260504191537 | 25 | 143 | 9.7 | 25.7 | 0.00 | 0.03 | 0.03 | 100 | 1017.4 |
| 20260504191029 | 24 | 128 | 8.0 | 19.3 | 0.00 | 0.03 | 0.03 | 100 | 1017.3 |
| 20260504190532 | 24 | 128 | 6.4 | 20.9 | 0.00 | 0.03 | 0.03 | 100 | 1017.5 |
| 20260504190030 | 25 | 105 | 8.0 | 20.9 | 0.00 | 0.03 | 0.03 | 100 | 1017.6 |
| 20260504185530 | 25 | 72 | 6.4 | 20.9 | 0.00 | 0.03 | 0.03 | 100 | 1017.6 |
| 20260504185032 | 25 | 117 | 6.4 | 20.9 | 0.00 | 0.03 | 0.03 | 100 | 1017.7 |
| 20260504184530 | 25 | 99 | 8.0 | 22.5 | 0.00 | 0.03 | 0.03 | 100 | 1017.7 |
| 20260504184033 | 25 | 98 | 9.7 | 22.5 | 0.00 | 0.03 | 0.03 | 100 | 1017.6 |
| 20260504183530 | 25 | 126 | 9.7 | 22.5 | 0.00 | 0.03 | 0.03 | 100 | 1017.9 |
| 20260504183028 | 25 | 142 | 9.7 | 19.3 | 0.00 | 0.03 | 0.03 | 100 | 1018.0 |
| 20260504182527 | 25 | 121 | 9.7 | 17.7 | 0.00 | 0.03 | 0.03 | 100 | 1018.1 |
| 20260504182027 | 25 | 113 | 4.8 | 19.3 | 0.00 | 0.03 | 0.03 | 100 | 1018.1 |
| 20260504181527 | 25 | 126 | 4.8 | 19.3 | 0.00 | 0.03 | 0.03 | 100 | 1018.1 |
| 20260504181029 | 24 | 121 | 9.7 | 20.9 | 0.00 | 0.03 | 0.03 | 100 | 1018.2 |
| 20260504180527 | 24 | 142 | 9.7 | 20.9 | 0.00 | 0.03 | 0.03 | 100 | 1018.2 |
| 20260504180027 | 25 | 148 | 6.4 | 19.3 | 0.00 | 0.03 | 0.03 | 100 | 1018.1 |
| 20260504175530 | 25 | 139 | 9.7 | 17.7 | 0.00 | 0.03 | 0.03 | 100 | 1018.1 |
| 20260504175026 | 25 | 94 | 6.4 | 17.7 | 0.00 | 0.03 | 0.03 | 100 | 1018.1 |
| 20260504174526 | 25 | 5 | 6.4 | 22.5 | 0.00 | 0.03 | 0.03 | 100 | 1018.2 |
| 20260504174027 | 25 | 135 | 8.0 | 22.5 | 0.00 | 0.03 | 0.03 | 100 | 1018.3 |
| 20260504173526 | 25 | 120 | 4.8 | 20.9 | 0.00 | 0.03 | 0.03 | 100 | 1018.3 |
| 20260504173027 | 25 | 125 | 8.0 | 22.5 | 0.00 | 0.03 | 0.03 | 100 | 1018.3 |
| 20260504172526 | 25 | 41 | 9.7 | 20.9 | 0.00 | 0.03 | 0.03 | 100 | 1018.3 |
| 20260504172025 | 25 | 126 | 6.4 | 22.5 | 0.00 | 0.03 | 0.03 | 100 | 1018.2 |
| 20260504171531 | 25 | 111 | 8.0 | 22.5 | 0.00 | 0.03 | 0.03 | 100 | 1018.3 |
| 20260504171027 | 24 | 119 | 8.0 | 17.7 | 0.00 | 0.03 | 0.03 | 100 | 1018.2 |
| 20260504170524 | 25 | 94 | 4.8 | 19.3 | 0.00 | 0.03 | 0.03 | 100 | 1018.3 |
| 20260504151015 | 24 | 130 | 6.4 | 22.5 | 0.00 | 0.03 | 0.03 | 100 | 1018.6 |
| 20260504150515 | 24 | 137 | 6.4 | 22.5 | 0.00 | 0.03 | 0.03 | 100 | 1018.6 |
| 20260504141013 | 23 | 36 | 4.8 | 20.9 | 0.00 | 0.03 | 0.03 | 100 | 1018.2 |
| 20260504140508 | 23 | 80 | 4.8 | 24.1 | 0.00 | 0.03 | 0.03 | 100 | 1018.1 |
| 20260504130554 | 23 | 27 | 11.3 | 22.5 | 0.00 | 0.03 | 0.03 | 100 | 1017.6 |
| 20260504110539 | 22 | 336 | 8.0 | 20.9 | 0.00 | 0.03 | 0.03 | 100 | 1016.5 |
| 20260504100535 | 22 | 355 | 4.8 | 14.5 | 0.03 | 0.08 | 0.03 | 100 | 1016.1 |
| 20260504081528 | 23 | 355 | 4.8 | 20.9 | 0.00 | 0.23 | 0.00 | 100 | 1015.4 |
| 20260504081026 | 23 | 42 | 6.4 | 19.3 | 0.00 | 0.23 | 0.00 | 100 | 1015.2 |
| 20260504080523 | 23 | 34 | 3.2 | 20.9 | 0.00 | 0.23 | 0.00 | 100 | 1015.3 |
| 20260504050557 | 23 | 28 | 3.2 | 17.7 | 0.00 | 0.23 | 0.00 | 100 | 1017.1 |
| 20260504045555 | 23 | 355 | 3.2 | 16.1 | 0.00 | 0.23 | 0.00 | 100 | 1017.4 |
| 20260504045056 | 23 | 96 | 3.2 | 16.1 | 0.00 | 0.23 | 0.00 | 100 | 1017.5 |
| 20260504044557 | 23 | 21 | 4.8 | 16.1 | 0.00 | 0.23 | 0.00 | 100 | 1017.5 |
| 20260504044055 | 23 | 67 | 3.2 | 16.1 | 0.00 | 0.23 | 0.00 | 100 | 1017.4 |
| 20260504043553 | 23 | 33 | 3.2 | 19.3 | 0.00 | 0.23 | 0.00 | 100 | 1017.5 |
| 20260504043054 | 23 | 5 | 3.2 | 19.3 | 0.00 | 0.23 | 0.00 | 100 | 1017.7 |
| 20260504042550 | 23 | 71 | 1.6 | 8.0 | 0.00 | 0.23 | 0.00 | 100 | 1017.8 |
| 20260504042048 | 23 | 49 | 1.6 | 8.0 | 0.00 | 0.23 | 0.00 | 100 | 1017.7 |
| 20260504041546 | 23 | 52 | 1.6 | 8.0 | 0.00 | 0.23 | 0.00 | 100 | 1017.7 |
| 20260504041046 | 23 | 76 | 1.6 | 8.0 | 0.00 | 0.23 | 0.00 | 100 | 1017.7 |
| 20260504040548 | 23 | 138 | 1.6 | 16.1 | 0.00 | 0.23 | 0.00 | 100 | 1017.7 |
| 20260504040100 | 23 | 66 | 3.2 | 16.1 | 0.00 | 0.23 | 0.00 | 100 | 1017.8 |
| 20260504035543 | 23 | 54 | 1.6 | 9.7 | 0.00 | 0.23 | 0.00 | 100 | 1017.9 |
| 20260504035039 | 23 | 39 | 1.6 | 12.9 | 0.00 | 0.23 | 0.00 | 100 | 1017.9 |
| 20260504034541 | 23 | 106 | 3.2 | 12.9 | 0.00 | 0.23 | 0.23 | 100 | 1017.9 |
| 20260504034039 | 23 | 127 | 3.2 | 12.9 | 0.00 | 0.23 | 0.23 | 100 | 1017.9 |
| 20260504033539 | 23 | 84 | 3.2 | 12.9 | 0.00 | 0.23 | 0.23 | 100 | 1017.9 |
| 20260504033040 | 22 | 134 | 4.8 | 12.9 | 0.00 | 0.23 | 0.23 | 100 | 1017.9 |
| 20260504032538 | 22 | 50 | 0.0 | 9.7 | 0.00 | 0.23 | 0.23 | 100 | 1018.2 |
| 20260504032038 | 22 | 121 | 1.6 | 11.3 | 0.00 | 0.23 | 0.23 | 100 | 1018.2 |
| 20260504031538 | 22 | 94 | 1.6 | 11.3 | 0.00 | 0.23 | 0.23 | 100 | 1018.3 |
| 20260504031037 | 22 | 90 | 3.2 | 11.3 | 0.00 | 0.23 | 0.23 | 100 | 1018.2 |
| 20260504030537 | 22 | 49 | 1.6 | 9.7 | 0.00 | 0.23 | 0.23 | 100 | 1018.2 |
| 20260504030037 | 22 | 58 | 3.2 | 12.9 | 0.00 | 0.23 | 0.23 | 100 | 1018.1 |
| 20260504025538 | 22 | 38 | 3.2 | 12.9 | 0.00 | 0.23 | 0.23 | 100 | 1018.0 |